Regional Weather Roundup
Issued by NWS

Home | Current Version | Previous Version | Graphics & Text | Print | Product List | Glossary On
Versions: 1 2 3 4 5 6 7 8 9 10 11 12 13 14 15 16 17 18 19 20 21 22 23 24 25 26 27 28 29 30 31 32 33 34 35 36 37 38 39 40 41 42 43 44 45 46 47 48 49 50
000
ASUS43 KDMX 300708
RWRIA

WEATHER ROUNDUP FOR IOWA
NATIONAL WEATHER SERVICE DES MOINES IA
200 AM CDT SAT JUL 30 2016

NOTE: "FAIR" INDICATES FEW OR NO CLOUDS BELOW 12,000 FEET WITH NO
SIGNIFICANT WEATHER AND/OR OBSTRUCTIONS TO VISIBILITY.

* - THESE STATIONS ARE NOT NWS STATIONS...THUS NOT UNDER NWS
QUALITY CONTROL.  THEY ALSO DO NOT REPORT WEATHER SUCH
AS PRECIPITATION OR FOG.

IAZ001>003-012>014-020>022-031>034-043>046-300800-
   NORTHWEST IOWA

CITY           SKY/WX    TMP DP  RH WIND       PRES   REMARKS
CARROLL *      CLOUDY    63  63 100 NW3       30.02S
CHEROKEE *     MOCLDY    61  61 100 N3        30.04S
DENISON *      MOCLDY    59  59 100 CALM      30.02S
LE MARS *      CLOUDY    59  57  94 CALM      30.05S
SHELDON *      MOCLDY    55  55 100 CALM      30.04S
SIOUX CITY     MOCLDY    65  61  87 CALM      30.04R
SPENCER        CLOUDY    55  53  93 NW3       30.04F
STORM LAKE *   CLOUDY    61  59  94 N6        30.04S
$$

IAZ055>058-069>071-079>083-090>094-300800-
   SOUTHWEST IOWA

CITY           SKY/WX    TMP DP  RH WIND       PRES   REMARKS
ATLANTIC *     PTCLDY    63  61  94 CALM      30.03R
CLARINDA *       N/A     61  61 100 MISG      30.05S
COUNCIL BLFS * MOCLDY    63  61  94 CALM      30.03F
CRESTON *      CLOUDY    63  61  94 CALM      30.03S
HARLAN  *      MOCLDY    59  59 100 CALM      30.07S
LAMONI         PTCLDY    62  62 100 NW5       30.02S
RED OAK *      PTCLDY    63  61  94 CALM      30.04R
SHENANDOAH *   CLEAR     63  63 100 CALM      30.04S
$$

IAZ047>049-059>061-072>074-084-300800-
   CENTRAL IOWA

CITY           SKY/WX    TMP DP  RH WIND       PRES   REMARKS
AMES           PTCLDY    66  65  96 CALM      30.00F
ANKENY *         N/A    N/A N/A N/A MISG        N/A
BOONE *          N/A     66  64  94 NE6       30.00F
CHARITON *       N/A    N/A N/A N/A MISG        N/A
DES MOINES     MOCLDY    69  65  86 N3        29.99F
GRINNELL*      CLOUDY    66  64  94 N3        30.00S
KNOXVILLE *    MOCLDY    64  63  94 W5        29.98S
MARSHALLTOWN   CLOUDY    65  64  97 N3        29.99S
NEWTON *       CLOUDY    66  66 100 N5        29.98F
PELLA *        MOCLDY    64  64  97 CALM      30.00F
PERRY *        MOCLDY    64  64  98 N3        30.01S
$$

IAZ004>006-015-016-023>025-035-036-300800-
   NORTH CENTRAL IOWA

CITY           SKY/WX    TMP DP  RH WIND       PRES   REMARKS
ALGONA *       CLOUDY    64  61  88 N5        30.03S
ESTHERVILLE    CLOUDY    56  55  97 NW6       30.04F
FORT DODGE *   CLEAR     63  61  94 CALM      30.03S
MASON CITY     MOCLDY    64  62  93 NE6       30.04S
FOREST CITY *  CLOUDY    64  61  88 NE3       30.02F
IOWA FALLS *     N/A     65  63  92 N3        30.02F
$$

IAZ007>011-017>019-026>030-037>042-050>054-066-300800-
   NORTHEAST IOWA

CITY           SKY/WX    TMP DP  RH WIND       PRES   REMARKS
CEDAR RAPIDS   CLOUDY    68  68 100 N5        29.97F
CHARLES CITY * CLOUDY    66  66 100 CALM      30.02S
CLINTON *      CLEAR     65  64  97 N5        29.97S
DECORAH *      CLOUDY    66  66 100 CALM      30.01F
DUBUQUE        PTCLDY    65  64  97 N6        29.99F FOG
MONTICELLO *   PTCLDY    66  64  94 N3        29.98S
OELWEIN *      CLOUDY    66  66 100 NE5       30.01S
WATERLOO       CLOUDY    66  64  93 N3        29.99F
$$

IAZ064-065-067-068-078-300800-
   EAST CENTRAL IOWA

CITY           SKY/WX    TMP DP  RH WIND       PRES   REMARKS
DAVENPORT      CLOUDY    68  65  90 NE7       29.96F
IOWA CITY      CLOUDY    69  66  90 NE5       29.98S
MT. PLEASANT * CLOUDY    69  69 100 CALM      29.96S FOG
MUSCATINE *    PTCLDY    66  64  94 CALM      29.96S
QUAD CITIES    CLOUDY    71  66  84 E10       29.94F
$$

IAZ062-063-075>077-085>089-095>099-300800-
   SOUTHEAST IOWA

CITY           SKY/WX    TMP DP  RH WIND       PRES   REMARKS
BURLINGTON     CLOUDY    69  68  96 N5        29.95S
FAIRFIELD *    CLOUDY    68  66  94 CALM      29.97S
KEOKUK *       CLOUDY    66  66 100 NW5       29.95S
CENTERVILLE *  CLOUDY    66  64  94 CALM      30.01S
OTTUMWA        CLOUDY    66  64  93 NW5       29.98S
WASHINGTON *   CLOUDY    68  68 100 N5        29.98S
$$

ABBREVIATIONS USED IN REMARKS
   TC - TEMPERATURES IN CELSIUS
  WCI - WIND CHILL INDEX
   HX - HEAT INDEX
  VSB - VISIBILITY
$$





USA.gov is the U.S. government's official web portal to all federal, state and local government web resources and services.